Weather History for Bloomington, IL

Change the Weather History Date:

Thursday, October 18, 2012

  Actual Average Record
Temperature  
Mean Temperature 47 °F -  
Max Temperature 52 °F 64 °F 79 °F (2007)
Min Temperature 42 °F 42 °F 35 °F (1999)
Degree Days  
Heating Degree Days 18    
Moisture  
Dew Point 38 °F    
Average Humidity 72    
Maximum Humidity 93    
Minimum Humidity 50    
Precipitation  
Precipitation 0.03 in - - ()
Sea Level Pressure  
Sea Level Pressure 29.51 in    
Wind  
Wind Speed 15 mph (SW)    
Max Wind Speed 26 mph    
Max Gust Speed -    
Visibility 10 miles    
Events Rain    
Averages and records for this station are not official NWS values.
T = Trace of Precipitation, MM = Missing Value Source: NWS Daily Summary

Daily Weather History Graph

Daily Weather History Graph

Search for Another Location

Airport:

Trip Planner

Search our weather history database for the weather conditions in past years. The results will help you decide how hot, cold, wet, or windy it might be!

Date:

Astronomy

Oct. 18, 2012 Rise Set
Actual Time 7:10 AM CDT 6:10 PM CDT
Civil Twilight 6:42 AM CDT 6:37 PM CDT
Nautical Twilight 6:11 AM CDT 7:09 PM CDT
Astronomical Twilight 5:39 AM CDT 7:41 PM CDT
Moon 10:52 AM CDT (10/18) 8:43 PM CDT (10/18)
Length of Visible Light 11h 55m
Length of Day
11h 00m
Waxing Crescent, 14% of the Moon is Illuminated
Oct 18
Waxing Crescent
Oct 21
First Quarter
Oct 29
Full
Nov 6
Last Quarter
Nov 13
New

Hourly Weather History & Observations

Time (CDT) Temp. Windchill Dew Point Humidity Pressure Visibility Wind Dir Wind Speed Gust Speed Precip Events Conditions
12:56 AM 50.9 °F - 45.0 °F 80% 29.46 in 10.0 mi West 13.8 mph - N/A   Partly Cloudy
1:56 AM 48.9 °F - 41.0 °F 74% 29.47 in 10.0 mi West 13.8 mph - N/A   Clear
2:56 AM 46.9 °F - 39.9 °F 77% 29.47 in 10.0 mi WSW 19.6 mph - N/A   Clear
3:56 AM 45.9 °F 40.4 °F 38.8 °F 76% 29.46 in 10.0 mi WSW 11.5 mph - N/A   Clear
4:56 AM 45.0 °F 38.5 °F 37.9 °F 76% 29.47 in 10.0 mi West 13.8 mph - N/A   Clear
5:56 AM 43.9 °F 38.8 °F 36.9 °F 76% 29.48 in 10.0 mi SW 9.2 mph - N/A   Clear
6:56 AM 43.0 °F 36.4 °F 37.9 °F 82% 29.48 in 10.0 mi SW 12.7 mph - N/A   Clear
7:56 AM 43.9 °F 36.5 °F 37.9 °F 80% 29.49 in 10.0 mi SW 16.1 mph - N/A   Clear
8:56 AM 45.9 °F 39.7 °F 37.9 °F 74% 29.49 in 10.0 mi SW 13.8 mph - N/A   Clear
9:56 AM 47.8 °F - 36.9 °F 66% 29.50 in 10.0 mi SW 17.3 mph - N/A   Clear
10:56 AM 52.0 °F - 36.0 °F 54% 29.50 in 10.0 mi WSW 18.4 mph - N/A   Clear
11:56 AM 52.9 °F - 34.9 °F 50% 29.50 in 10.0 mi SW 19.6 mph - N/A   Scattered Clouds
12:56 PM 52.0 °F - 34.0 °F 50% 29.49 in 10.0 mi SW 21.9 mph - N/A   Scattered Clouds
1:56 PM 48.9 °F - 34.9 °F 58% 29.51 in 6.0 mi WSW 26.5 mph - 0.00 in Rain Light Rain
2:56 PM 47.8 °F - 36.0 °F 63% 29.54 in 10.0 mi WSW 12.7 mph - 0.00 in Rain Light Rain
3:56 PM 47.8 °F - 36.9 °F 66% 29.55 in 10.0 mi SW 16.1 mph - 0.00 in Rain Light Rain
4:56 PM 47.8 °F - 36.9 °F 66% 29.56 in 10.0 mi SW 16.1 mph - 0.00 in Rain Light Rain
5:56 PM 46.9 °F - 36.9 °F 68% 29.57 in 10.0 mi SW 17.3 mph - 0.00 in Rain Light Rain
6:56 PM 45.9 °F 38.5 °F 37.9 °F 74% 29.57 in 10.0 mi WSW 18.4 mph - 0.00 in   Overcast
7:56 PM 45.0 °F 38.2 °F 37.9 °F 76% 29.57 in 10.0 mi SW 15.0 mph - 0.00 in Rain Light Rain
8:56 PM 45.0 °F 38.5 °F 37.9 °F 76% 29.55 in 10.0 mi SW 13.8 mph - 0.00 in Rain Light Rain
9:56 PM 45.0 °F 38.5 °F 38.8 °F 79% 29.55 in 10.0 mi SW 13.8 mph - 0.00 in Rain Light Rain
11:19 PM 42.8 °F 35.4 °F 41.0 °F 93% 29.51 in 7.0 mi SSW 15.0 mph - 0.01 in Rain Light Rain
11:56 PM 43.0 °F 35.4 °F 41.0 °F 93% 29.50 in 5.0 mi SSW 16.1 mph - 0.03 in Rain Light Rain